Port Hope, MI

6:41 PM EST on February 09, 2016 (GMT -0500)
Port Hope

Weather History for KP58 - October, 2013

Change the Weather History Date:

Saturday, October 26, 2013

  Actual Average Record
Temperature  
Mean Temperature 44 °F -  
Max Temperature 48 °F 54 °F 81 °F (2000)
Min Temperature 41 °F 40 °F 30 °F (2006)
Degree Days  
Heating Degree Days 20    
Moisture  
Dew Point 33 °F    
Average Humidity 67    
Maximum Humidity 82    
Minimum Humidity 52    
Precipitation  
Precipitation 0.03 in - - ()
Sea Level Pressure  
Sea Level Pressure 29.77 in    
Wind  
Wind Speed 13 mph (WSW)    
Max Wind Speed 17 mph    
Max Gust Speed 33 mph    
Averages and records for this station are not official NWS values.
T = Trace of Precipitation, MM = Missing Value Source: NWS Daily Summary

Daily Weather History Graph

Daily Weather History Graph

Search for Another Location

Airport or City:

Trip Planner

Search our weather history database for the weather conditions in past years. The results will help you decide how hot, cold, wet, or windy it might be!

Date:

Astronomy

Oct. 26, 2013 Rise Set
Actual Time 8:00 AM EDT 6:29 PM EDT
Civil Twilight 7:30 AM EDT 6:59 PM EDT
Nautical Twilight 6:56 AM EDT 7:32 PM EDT
Astronomical Twilight 6:23 AM EDT 8:06 PM EDT
Moon No Moon Rise 2:17 PM EDT (10/26)
Length of Visible Light 11h 28m
Length of Day
10h 29m
Waning Gibbous, 53% of the Moon is Illuminated
Oct 26
Waning Gibbous
Oct 26
Last Quarter
Nov 3
New
Nov 10
First Quarter
Nov 17
Full

Hourly Weather History & Observations

Time (EDT) Temp. Windchill Dew Point Humidity Pressure Visibility Wind Dir Wind Speed Gust Speed Precip Events Conditions
12:51 AM 42.1 °F 36.1 °F 27.0 °F 55% 29.92 in - SSW 10.4 mph 16.1 mph N/A   Unknown
1:51 AM 43.0 °F 37.2 °F 27.0 °F 53% 29.87 in - SSW 10.4 mph 20.7 mph N/A   Unknown
2:51 AM 44.1 °F 36.8 °F 28.9 °F 55% 29.82 in - SW 16.1 mph 28.8 mph N/A   Unknown
3:51 AM 45.0 °F 38.2 °F 28.0 °F 52% 29.77 in - SW 15.0 mph 28.8 mph N/A   Unknown
4:51 AM 44.1 °F 36.5 °F 30.0 °F 58% 29.74 in - WSW 17.3 mph 28.8 mph N/A   Unknown
5:51 AM 44.1 °F 36.5 °F 30.9 °F 60% 29.72 in - SW 17.3 mph 33.4 mph N/A   Unknown
6:51 AM 42.1 °F 34.9 °F 35.1 °F 76% 29.72 in - WSW 13.8 mph 25.3 mph N/A   Unknown
7:51 AM 41.0 °F 33.5 °F 36.0 °F 82% 29.70 in - SW 13.8 mph 25.3 mph 0.03 in   Unknown
8:51 AM 42.1 °F 34.5 °F 35.1 °F 76% 29.70 in - SW 15.0 mph 27.6 mph N/A   Unknown
9:51 AM 43.0 °F 36.8 °F 35.1 °F 74% 29.70 in - SW 11.5 mph 26.5 mph N/A   Unknown
10:51 AM 45.0 °F 38.2 °F 35.1 °F 68% 29.69 in - WSW 15.0 mph 26.5 mph N/A   Unknown
11:51 AM 46.0 °F 39.9 °F 36.0 °F 68% 29.68 in - WSW 13.8 mph 24.2 mph N/A   Unknown
12:51 PM 46.0 °F 41.0 °F 37.0 °F 71% 29.68 in - WSW 10.4 mph 25.3 mph N/A   Unknown
1:51 PM 45.0 °F 40.1 °F 39.0 °F 80% 29.68 in - WSW 9.2 mph - N/A   Unknown
2:51 PM 46.0 °F 44.8 °F 39.9 °F 79% 29.69 in - Variable 3.5 mph - N/A   Unknown
3:51 PM 46.9 °F - 34.0 °F 61% 29.71 in - WNW 11.5 mph 20.7 mph N/A   Unknown
4:51 PM 48.0 °F - 32.0 °F 54% 29.72 in - WNW 13.8 mph 21.9 mph N/A   Unknown
5:51 PM 46.9 °F - 33.1 °F 59% 29.75 in - WNW 11.5 mph 26.5 mph N/A   Unknown
6:51 PM 45.0 °F 39.3 °F 33.1 °F 63% 29.79 in - WNW 11.5 mph 24.2 mph N/A   Unknown
7:51 PM 45.0 °F 38.9 °F 34.0 °F 65% 29.83 in - WNW 12.7 mph 25.3 mph N/A   Unknown
8:51 PM 44.1 °F 37.4 °F 34.0 °F 68% 29.85 in - WNW 13.8 mph 26.5 mph N/A   Unknown
9:51 PM 42.1 °F 36.6 °F 34.0 °F 73% 29.87 in - WNW 9.2 mph 20.7 mph N/A   Unknown
10:51 PM 41.0 °F 34.7 °F 34.0 °F 76% 29.90 in - WNW 10.4 mph 19.6 mph N/A   Unknown
11:51 PM 41.0 °F 33.9 °F 34.0 °F 76% 29.91 in - WNW 12.7 mph 23.0 mph N/A   Unknown